Date String (YYYY-MM-DD hh:mm:ss) UTC,Instrument flags,Ambient pressure (hPa),Sample flow (lpm),Bypass flow (lpm),Sample temperature (°C),Ambient temperature (°C),ASC tube jacket temperature (°C),LED temperature (°C),Box temperature (°C),Sample RH (%),Span deviation,Mass concentration (μg/m³),Mass concentration (μg/m³),Mass concentration (μg/m³)
DateTimeUTC,F1_M11,P_M11,Q1_M11,Q2_M11,T1_M11,T2_M11,T3_M11,T4_M11,T5_M11,U1_M11,ZSPAN_M11,X0_M11,X2_M11,X1_M11
2022-07-23 11:00:00,,0824.8,5.01,0.00,29.7,26.9,00.0,38.4,31.4,18.8,0000.0,0008.43,0004.47,0003.79
2022-07-23 11:01:00,,0824.9,4.99,0.00,29.6,27.1,00.0,38.4,31.3,18.7,0000.0,0008.38,0004.46,0003.78
2022-07-23 11:02:00,,0824.9,5.00,0.00,29.6,27.2,00.0,38.4,31.3,19.0,0000.0,0008.29,0004.44,0003.78
2022-07-23 11:03:00,,0824.9,4.99,0.00,29.6,27.4,00.0,38.4,31.3,19.1,0000.0,0008.20,0004.43,0003.79
2022-07-23 11:04:00,,0824.9,5.00,0.00,29.5,27.6,00.0,38.4,31.3,19.1,0000.0,0008.19,0004.43,0003.80
2022-07-23 11:05:00,,0824.9,5.01,0.00,29.5,27.8,00.0,38.4,31.4,19.1,0000.0,0008.18,0004.43,0003.81
2022-07-23 11:06:00,,0824.9,5.00,0.00,29.5,27.9,00.0,38.4,31.4,19.1,0000.0,0008.38,0004.41,0003.81
2022-07-23 11:07:00,,0824.9,5.00,0.00,29.6,28.0,00.0,38.4,31.4,18.9,0000.0,0008.23,0004.41,0003.80
2022-07-23 11:08:00,,0824.9,5.00,0.00,29.6,28.2,00.0,38.4,31.5,18.8,0000.0,0008.58,0004.37,0003.79
2022-07-23 11:09:00,,0824.9,5.00,0.00,29.6,28.3,00.0,38.4,31.5,18.8,0000.0,0008.95,0004.36,0003.77
2022-07-23 11:10:00,,0824.9,5.00,0.00,29.6,28.4,00.0,38.4,31.5,18.8,0000.0,0009.30,0004.42,0003.78
2022-07-23 11:11:00,,0824.9,4.99,0.00,29.6,28.4,00.0,38.4,31.6,18.8,0000.0,0009.96,0004.46,0003.79
2022-07-23 11:12:00,,0824.9,5.00,0.00,29.7,28.5,00.0,38.4,31.6,18.8,0000.0,0010.19,0004.49,0003.81
2022-07-23 11:13:00,,0824.9,5.00,0.00,29.7,28.6,00.0,38.4,31.7,18.8,0000.0,0010.41,0004.51,0003.82
2022-07-23 11:14:00,,0824.9,5.00,0.00,29.7,28.7,00.0,38.4,31.7,18.8,0000.0,0010.67,0004.54,0003.82
2022-07-23 11:15:00,,0824.9,5.01,0.00,29.8,28.7,00.0,38.5,31.7,18.8,0000.0,0010.81,0004.59,0003.81
2022-07-23 11:16:00,,0824.9,5.00,0.00,29.8,28.8,00.0,38.5,31.8,18.8,0000.0,0010.74,0004.57,0003.81
2022-07-23 11:17:00,,0824.9,5.01,0.00,29.8,28.8,00.0,38.5,31.8,18.7,0000.0,0010.59,0004.56,0003.81
2022-07-23 11:18:00,,0824.9,4.99,0.00,29.9,28.9,00.0,38.5,31.9,18.7,0000.0,0010.63,0004.59,0003.82
2022-07-23 11:19:00,,0824.9,5.00,0.00,29.9,28.9,00.0,38.6,31.9,18.6,0000.0,0010.14,0004.56,0003.83
2022-07-23 11:20:00,,0824.9,5.00,0.00,29.9,28.4,00.0,38.5,31.9,18.6,0000.0,0009.65,0004.54,0003.82
2022-07-23 11:21:00,,0824.9,5.00,0.00,29.9,27.8,00.0,38.5,31.8,18.5,0000.0,0009.88,0004.52,0003.81
2022-07-23 11:22:00,,0824.9,5.00,0.00,29.9,27.6,00.0,38.5,31.7,18.4,0000.0,0009.25,0004.44,0003.78
2022-07-23 11:23:00,,0824.9,5.00,0.00,29.8,27.7,00.0,38.5,31.6,18.4,0000.0,0009.35,0004.39,0003.74
2022-07-23 11:24:00,,0824.9,5.00,0.00,29.8,27.8,00.0,38.5,31.6,18.6,0000.0,0009.27,0004.36,0003.71
2022-07-23 11:25:00,,0824.9,4.99,0.00,29.8,27.9,00.0,38.5,31.6,18.7,0000.0,0009.13,0004.35,0003.70
2022-07-23 11:26:00,,0824.9,5.00,0.00,29.7,28.0,00.0,38.5,31.6,18.6,0000.0,0009.11,0004.28,0003.67
2022-07-23 11:27:00,,0824.9,5.01,0.00,29.7,28.2,00.0,38.5,31.6,18.4,0000.0,0009.40,0004.27,0003.64
2022-07-23 11:28:00,,0824.9,5.00,0.00,29.8,28.3,00.0,38.5,31.7,18.4,0000.0,0009.37,0004.24,0003.61
2022-07-23 11:29:00,,0824.9,5.00,0.00,29.8,28.4,00.0,38.5,31.7,18.6,0000.0,0009.36,0004.23,0003.59
2022-07-23 11:30:00,,0824.9,5.00,0.00,29.8,28.5,00.0,38.5,31.7,18.5,0000.0,0009.39,0004.22,0003.57
2022-07-23 11:31:00,,0824.9,5.01,0.00,29.8,28.6,00.0,38.6,31.7,18.4,0000.0,0009.58,0004.25,0003.57
2022-07-23 11:32:00,,0824.9,4.99,0.00,29.8,28.7,00.0,38.6,31.8,18.5,0000.0,0009.44,0004.25,0003.55
2022-07-23 11:33:00,,0824.9,5.01,0.00,29.9,28.7,00.0,38.6,31.8,18.4,0000.0,0009.57,0004.29,0003.56
2022-07-23 11:34:00,,0824.9,5.01,0.00,29.9,28.8,00.0,38.6,31.9,18.4,0000.0,0009.14,0004.30,0003.57
2022-07-23 11:35:00,,0824.9,4.99,0.00,29.9,28.8,00.0,38.6,31.9,18.5,0000.0,0009.54,0004.29,0003.57
2022-07-23 11:36:00,,0824.9,5.01,0.00,29.9,28.3,00.0,38.6,31.9,18.5,0000.0,0009.51,0004.28,0003.58
2022-07-23 11:37:00,,0824.9,4.99,0.00,29.9,27.3,00.0,38.5,31.7,18.5,0000.0,0009.44,0004.31,0003.59
2022-07-23 11:38:00,,0824.9,5.00,0.00,29.8,27.0,00.0,38.5,31.6,18.6,0000.0,0009.23,0004.31,0003.60
2022-07-23 11:39:00,,0824.9,5.00,0.00,29.7,27.0,00.0,38.5,31.4,18.8,0000.0,0009.34,0004.31,0003.61
2022-07-23 11:40:00,,0824.9,5.00,0.00,29.7,27.1,00.0,38.4,31.4,18.8,0000.0,0009.34,0004.28,0003.62
2022-07-23 11:41:00,,0824.9,5.01,0.00,29.6,27.3,00.0,38.4,31.4,18.8,0000.0,0009.60,0004.27,0003.61
2022-07-23 11:42:00,,0824.9,5.00,0.00,29.6,27.5,00.0,38.4,31.4,18.8,0000.0,0009.40,0004.25,0003.61
2022-07-23 11:43:00,,0824.9,4.99,0.00,29.6,27.7,00.0,38.4,31.4,18.8,0000.0,0009.02,0004.20,0003.61
2022-07-23 11:44:00,,0824.9,5.00,0.00,29.6,27.8,00.0,38.4,31.4,18.8,0000.0,0009.02,0004.16,0003.62
2022-07-23 11:45:00,,0824.9,5.00,0.00,29.6,28.0,00.0,38.4,31.5,18.8,0000.0,0009.17,0004.18,0003.61
2022-07-23 11:46:00,,0824.9,5.00,0.00,29.6,28.1,00.0,38.4,31.5,18.8,0000.0,0008.91,0004.22,0003.61
2022-07-23 11:47:00,,0825.0,5.00,0.00,29.6,28.2,00.0,38.4,31.5,18.8,0000.0,0008.65,0004.19,0003.61
2022-07-23 11:48:00,,0825.0,5.00,0.00,29.7,28.3,00.0,38.4,31.6,18.7,0000.0,0008.57,0004.16,0003.60
2022-07-23 11:49:00,,0825.1,5.00,0.00,29.7,28.4,00.0,38.4,31.6,18.6,0000.0,0008.63,0004.14,0003.60
2022-07-23 11:50:00,,0825.1,5.00,0.00,29.7,28.5,00.0,38.5,31.7,18.6,0000.0,0008.33,0004.14,0003.61
2022-07-23 11:51:00,,0825.1,4.99,0.00,29.7,28.6,00.0,38.5,31.7,18.6,0000.0,0008.83,0004.17,0003.61
2022-07-23 11:52:00,,0825.1,5.00,0.00,29.8,28.7,00.0,38.5,31.8,18.6,0000.0,0009.18,0004.17,0003.62
2022-07-23 11:53:00,,0825.1,5.01,0.00,29.8,28.7,00.0,38.5,31.8,18.6,0000.0,0009.33,0004.22,0003.65
2022-07-23 11:54:00,,0825.1,5.00,0.00,29.8,28.8,00.0,38.5,31.8,18.6,0000.0,0009.36,0004.25,0003.67
2022-07-23 11:55:00,,0825.1,4.99,0.00,29.9,28.8,00.0,38.6,31.8,18.7,0000.0,0009.17,0004.29,0003.69
2022-07-23 11:56:00,,0825.2,5.00,0.00,29.9,28.9,00.0,38.6,31.9,18.7,0000.0,0009.07,0004.31,0003.72
2022-07-23 11:57:00,,0825.2,5.00,0.00,29.9,28.6,00.0,38.6,31.9,18.8,0000.0,0009.52,0004.36,0003.74
2022-07-23 11:58:00,,0825.2,5.01,0.00,29.9,27.6,00.0,38.5,31.7,18.9,0000.0,0009.83,0004.42,0003.76
2022-07-23 11:59:00,,0825.2,5.00,0.00,29.8,27.1,00.0,38.4,31.6,18.9,0000.0,0010.17,0004.46,0003.78
